"Pseudo-MPEC" for C5ZAJH2

Created 2021 Sep 18 11:07:05 UT using Find_Orb

Click here for an explanation of pseudo-MPECs

 
 Astrometry: 
     C5ZAJH2  C2021 09 14.41422103 03 56.88 -15 23 28.0    ~9EB7 21.46GVNEOCPG96
     C5ZAJH2  C2021 09 14.42175603 03 57.50 -15 23 47.0    ~9EB7 20.85GVNEOCPG96
     C5ZAJH2  C2021 09 14.42826503 03 57.98 -15 24 03.9    ~9EB7 21.24GVNEOCPG96
     C5ZAJH2  C2021 09 14.43359703 03 58.35 -15 24 17.0    ~9EB7 20.86GVNEOCPG96
     C5ZAJH2  C2021 09 14.50225303 04 03.39 -15 27 10.9    ~9ECb 21.36GVNEOCPG96
     C5ZAJH2  C2021 09 14.50301303 04 03.45 -15 27 13.1    ~9ECb 20.88GVNEOCPG96
     C5ZAJH2  C2021 09 14.50450703 04 03.53 -15 27 17.2    ~9ECb 21.62GVNEOCPG96
     C5ZAJH2 |C2021 09 15,lAstrometry(aZc)r9!OM%h\redacted;9sD4JAhg!Gy^jU/\7J807
     C5ZAJH2 |C2021 09 15qSg!/click-wjsKhhere-u/v=eCIE,X.Co2:In)Zo8hOforj2I;T807
     C5ZAJH2 |C2021 09 15Vj=,-(O#,O0d7-ZJ!]Jof^dXLm8explanationqlMb0YIlcMxl7c807
     C5ZAJH2 mC2021 09 16.44070203 06 30.77 -16 50 30.2    ~9GBq 21.06GVNEOCPG96
     C5ZAJH2 mC2021 09 16.46309003 06 32.36 -16 51 28.6    ~9GBq 21.01GVNEOCPG96
     C5ZAJH2 mC2021 09 16.46384903 06 32.46 -16 51 30.7    ~9GBq 21.27GVNEOCPG96
     C5ZAJH2 mC2021 09 16.47344603 06 33.12 -16 51 55.4    ~9GBq 20.90GVNEOCPG96
     C5ZAJH2 KC2021 09 18.39200503 08 55.59 -18 16 49.4    ~9IA7 20.88GVNEOCPG96
     C5ZAJH2 KC2021 09 18.39598703 08 55.88 -18 17 00.0    ~9IA7 20.81GVNEOCPG96
     C5ZAJH2 KC2021 09 18.39996803 08 56.10 -18 17 11.2    ~9IA7 20.32GVNEOCPG96

Station data:
(807) Cerro Tololo Observatory, La Serena  (S30.169136 W70.805900)  Chile.
(G96) Mt. Lemmon Survey  (N32.442754 W110.788720)  US/Arizona.  Observers T.
   A. Pruyne, B. M. Africano, E. J. Christensen, G. A. Farneth, D. C. Fuls,
   A. R. Gibbs, A. D. Grauer, H. Gröller, J. A. Johnson, R. A. Kowalski, S.
   M. Larson, G. J. Leonard, D. Rankin, R. L. Seaman, F. C. Shelly. 1.5-m
   reflector + 10K CCD.

Orbital elements:  C5ZAJH2
   Perihelion 2022 Jan 19.943787 +/- 0.683093 TT = 22:39:03 (JD 2459599.443787)
Epoch 2021 Sep 18.0 TT = JDT 2459475.5   Earth MOID: 0.5123   Ma: 0.0357
M 323.18625909 +/- 0.9834253        (J2000 ecliptic)          AutoNEOCP
n   0.29701965 +/- 0.00622019       Peri.  289.55276 +/- 0.8615271
a   2.22473996 +/- 0.0310576        Node   171.25803 +/- 0.1909900
e   0.4263847 +/- 0.00509128        Incl.   39.44901 +/- 0.2454910
P   3.32                   H 19.1   G  0.15   U  9.3  
q 1.27614482 +/- 0.0071479    Q 3.17333510 +/- 0.054146
From 17 observations 2021 Sept. 14-18; mean residual 0".25
Residuals in arcseconds: 
210914 G96  .56-  .08-    210914 G96  .28-  .20-    210916 G96  .49+  .09-    
210914 G96  .39+  .05+    210915 807  .15-  .14-    210916 G96  .12+  .32+    
210914 G96  .42+  .32-    210915 807  .12-  .03+    210918 G96  .13+  .06+    
210914 G96  .10+  .11+    210915 807  .18-  .03+    210918 G96  .31+  .20+    
210914 G96  .09+  .39+    210916 G96  .00   .18-    210918 G96  .51-  .27-    
210914 G96  .15+  .12+    210916 G96  .16-  .02+    

Ephemerides (geocentric):
Date (UTC) HH   RA              Dec         delta   r     elong  mag " sig PA
---- -- -- --  -------------   -----------  ------ ------ -----  --- ---- ---
2021 09 18 11  03 09 00.240   -18 19 40.69  .90677 1.7111 127.0 21.3 .129  91
2021 09 18 12  03 09 03.286   -18 21 32.93  .90644 1.7109 127.0 21.3 .140  90
2021 09 18 13  03 09 06.330   -18 23 25.24  .90611 1.7107 127.0 21.3 .151  88
2021 09 18 14  03 09 09.373   -18 25 17.61  .90578 1.7105 127.0 21.3 .163  87
2021 09 18 15  03 09 12.413   -18 27 10.04  .90546 1.7102 127.0 21.3 .175  86
2021 09 18 16  03 09 15.453   -18 29 02.53  .90513 1.7100 127.0 21.3 .187  85
2021 09 18 17  03 09 18.490   -18 30 55.09  .90480 1.7098 127.0 21.3 .200  85
2021 09 18 18  03 09 21.526   -18 32 47.71  .90447 1.7096 127.1 21.3 .213  84
2021 09 18 19  03 09 24.560   -18 34 40.39  .90415 1.7093 127.1 21.3 .226  83
2021 09 18 20  03 09 27.592   -18 36 33.13  .90382 1.7091 127.1 21.3 .239  83
2021 09 18 21  03 09 30.622   -18 38 25.94  .90350 1.7089 127.1 21.3 .253  82
2021 09 18 22  03 09 33.651   -18 40 18.81  .90317 1.7087 127.1 21.3 .267  82
2021 09 18 23  03 09 36.678   -18 42 11.74  .90285 1.7084 127.1 21.3 .281  81
2021 09 19 00  03 09 39.704   -18 44 04.73  .90253 1.7082 127.1 21.3 .295  81
2021 09 19 01  03 09 42.727   -18 45 57.78  .90220 1.7080 127.1 21.3 .310  81
2021 09 19 02  03 09 45.749   -18 47 50.90  .90188 1.7078 127.1 21.3 .325  80
2021 09 19 03  03 09 48.769   -18 49 44.07  .90156 1.7075 127.1 21.3 .340  80
2021 09 19 04  03 09 51.787   -18 51 37.31  .90124 1.7073 127.2 21.3 .355  80
2021 09 19 05  03 09 54.804   -18 53 30.61  .90091 1.7071 127.2 21.3 .371  79
2021 09 19 06  03 09 57.819   -18 55 23.97  .90059 1.7069 127.2 21.3 .387  79
2021 09 19 07  03 10 00.832   -18 57 17.39  .90027 1.7067 127.2 21.3 .403  79
2021 09 19 08  03 10 03.843   -18 59 10.87  .89995 1.7064 127.2 21.3 .419  79
2021 09 19 09  03 10 06.853   -19 01 04.41  .89963 1.7062 127.2 21.3 .436  78
2021 09 19 10  03 10 09.861   -19 02 58.01  .89931 1.7060 127.2 21.3 .453  78
2021 09 19 11  03 10 12.867   -19 04 51.67  .89899 1.7058 127.2 21.3 .470  78
2021 09 19 12  03 10 15.871   -19 06 45.40  .89868 1.7055 127.2 21.3 .487  78
2021 09 19 13  03 10 18.873   -19 08 39.18  .89836 1.7053 127.2 21.3 .505  78
2021 09 19 14  03 10 21.874   -19 10 33.02  .89804 1.7051 127.2 21.3 .522  77
2021 09 19 15  03 10 24.873   -19 12 26.93  .89773 1.7049 127.3 21.3 .540  77
2021 09 19 16  03 10 27.870   -19 14 20.89  .89741 1.7046 127.3 21.3 .559  77
2021 09 19 17  03 10 30.866   -19 16 14.92  .89709 1.7044 127.3 21.3 .577  77
2021 09 19 18  03 10 33.859   -19 18 09.00  .89678 1.7042 127.3 21.3 .596  77
2021 09 19 19  03 10 36.851   -19 20 03.14  .89646 1.7040 127.3 21.3 .615  77
2021 09 19 20  03 10 39.841   -19 21 57.34  .89615 1.7037 127.3 21.3 .634  77
2021 09 19 21  03 10 42.829   -19 23 51.61  .89583 1.7035 127.3 21.3 .654  77
2021 09 19 22  03 10 45.816   -19 25 45.93  .89552 1.7033 127.3 21.3 .674  76
2021 09 19 23  03 10 48.801   -19 27 40.31  .89521 1.7031 127.3 21.3 .694  76
2021 09 20 00  03 10 51.783   -19 29 34.75  .89490 1.7029 127.3 21.3 .714  76
2021 09 20 01  03 10 54.765   -19 31 29.25  .89458 1.7026 127.3 21.3 .734  76
2021 09 20 02  03 10 57.744   -19 33 23.80  .89427 1.7024 127.4 21.3 .755  76
2021 09 20 03  03 11 00.721   -19 35 18.42  .89396 1.7022 127.4 21.3 .776  76
2021 09 20 04  03 11 03.697   -19 37 13.09  .89365 1.7020 127.4 21.3 .797  76
2021 09 20 05  03 11 06.671   -19 39 07.83  .89334 1.7017 127.4 21.3 .819  76
2021 09 20 06  03 11 09.643   -19 41 02.62  .89303 1.7015 127.4 21.3 .841  76
2021 09 20 07  03 11 12.613   -19 42 57.47  .89272 1.7013 127.4 21.3 .863  76
2021 09 20 08  03 11 15.582   -19 44 52.37  .89241 1.7011 127.4 21.3 .885  76
2021 09 20 09  03 11 18.548   -19 46 47.34  .89210 1.7008 127.4 21.3 .907  76
2021 09 20 10  03 11 21.513   -19 48 42.36  .89179 1.7006 127.4 21.3 .930  75